sat.trackr.live / text

‹ back to catalog

ONEWEB-0368

NORAD 49294 · 2021-090R

PAYLOAD ACTIVE UNKNOWN

§ Identity

Operator
Country
UK
Launch date
2021-10-14
Launch site
VOSTO
Launch vehicle
Mass (kg)
RCS (m²)

Purposes: comms

External: N2YO · Heavens-Above · Gunter

§ Orbital elements

Epoch: 2026-05-25T02:34:06.439008Z

Period
109.03 min
Inclination
87.9164°
Eccentricity
0.0002125
Mean motion
13.20771230 rev/d
Perigee alt
1,180.2 km
Apogee alt
1,183.4 km
Semi-major
7,559.9 km
B*
-6.1804e-6
RAAN
279.0548°
Arg perigee
79.8411°
Mean anomaly
280.2962°
Rev number
22,793

§ Raw data

ONEWEB-03681 49294U 21090R   26145.10701897  .00000010  00000+0 -61804-5 0  99962 49294  87.9164 279.0548 0002125  79.8411 280.2962 13.20771230227938

JSON: /api/v1/satellites/49294 · /tle

For live sub-satellite position, see the globe view (requires WebGL).

§ Visibility from observer

Set your observer location to see the next 7 days of passes ≥ 10°. The values pass through the URL so the page stays shareable.

No JS? Fill the form by hand. The geolocation button needs JavaScript.